Home   Weather   Columbia   Past weeks
Flag for USA

Past Weather in Columbia, South Carolina, USA — January 2012

Now
57 °F

Light rain. Fog.


Feels Like: 57 °F
Forecast: 52 / 65 °F
Wind: 3 mph from North

Location: Columbia Owens Downtown Airport

Current Time: Dec 15, 2018 at 1:53:59 am

Latest Report: Dec 15, 2018 at 12:53 am


Visibility: 3 mi

Pressure: 29.92 "Hg

Humidity: 93%

Dew Point: 55 °F

Location of ColumbiaLocation

January 2012 Weather in Columbia — Graph

°F

High & Low Weather Summary for January 2012

 TemperatureHumidityPressure
High75 °F (Jan 26, 2:53 pm)100% (Jan 9, 4:53 am)30.60 "Hg (Jan 9, 4:53 am)
Low22 °F (Jan 4, 5:53 am)17% (Jan 29, 2:53 pm)29.57 "Hg (Jan 11, 5:08 pm)
Average50 °F68%30.13 "Hg
* Reported Jan 1 12:10 am — Jan 31 11:53 pm, Columbia. Weather by CustomWeather, © 2018

Note: Actual official high and low records may vary slightly from our data, if they occured in-between our weather recording intervals... More about our weather records

Advertising

Columbia Weather History for January 1, 2012

Scroll right to see more
 ConditionsComfort  
Time TempWeatherWind HumidityBarometerVisibility
12:10 am
Sun, Jan 1
43 °FFog.No wind87%30.18 "Hg3 mi
12:53 am42 °FFog.No wind85%30.17 "Hg2 mi
1:53 am41 °FFog.No wind89%30.16 "Hg2 mi
2:53 am40 °FFog.No wind89%30.17 "Hg1 mi
3:53 am39 °FFog.No wind89%30.17 "Hg1 mi
4:53 am38 °FFog.No wind90%30.17 "Hg2 mi
5:53 am37 °FFog.No wind93%30.18 "Hg2 mi
6:53 am37 °FFog.No wind89%30.18 "Hg2 mi
7:53 am37 °FFog.No wind89%30.19 "Hg1 mi
8:53 am43 °FFog.No wind86%30.19 "Hg4 mi
9:53 am50 °FSunny.No wind68%30.18 "Hg10 mi
10:53 am58 °FSunny.No wind54%30.16 "Hg10 mi
11:53 am65 °FMostly cloudy.5 mph54%30.11 "Hg10 mi
12:53 pm68 °FPartly sunny.8 mph55%30.06 "Hg10 mi
1:53 pm71 °FPassing clouds.12 mph55%30.01 "Hg10 mi
2:53 pm73 °FPassing clouds.13 mph53%29.99 "Hg10 mi
3:53 pm72 °FPartly sunny.8 mph57%29.98 "Hg10 mi
4:53 pm71 °FPartly sunny.9 mph57%29.98 "Hg10 mi
5:53 pm70 °FMostly cloudy.16 mph59%29.99 "Hg10 mi
6:53 pm67 °FClear.8 mph63%30.01 "Hg10 mi
7:53 pm65 °FClear.9 mph68%30.03 "Hg10 mi
8:53 pm63 °FClear.10 mph73%30.03 "Hg10 mi
9:53 pm62 °FClear.8 mph75%30.03 "Hg10 mi
10:53 pm61 °FClear.8 mph62%30.03 "Hg10 mi
11:53 pm59 °FClear.12 mph54%30.04 "Hg10 mi
Weather by CustomWeather, © 2018

See weather overview